Regional Weather Roundup
Issued by NWS

Home | Current Version | Previous Version | Text Only | Print | Product List | Glossary Off
Versions: 1 2 3 4 5 6 7 8 9 10 11 12 13 14 15 16 17 18 19 20 21 22 23 24 25 26 27 28 29 30 31 32 33 34 35 36 37 38 39 40 41 42 43 44 45 46 47 48 49 50

000
ASUS43 KFSD 061002
RWRSD

WEATHER ROUNDUP FOR SOUTH DAKOTA
NATIONAL WEATHER SERVICE SIOUX FALLS SD
500 AM CDT WED MAY 06 2015

NOTE: "FAIR" INDICATES FEW OR NO CLOUDS BELOW 12,000 FEET WITH NO
SIGNIFICANT WEATHER AND/OR OBSTRUCTIONS TO VISIBILITY.


SDZ001>005-009-010-012>017-061100-
NORTHWEST AND NORTH CENTRAL SOUTH DAKOTA

CITY           SKY/WX    TMP DP  RH WIND       PRES   REMARKS
BUFFALO          N/A     55  51  86 SE20      29.66F
FAITH            N/A     55  53  93 SE9       29.76F
MOBRIDGE       LGT RAIN  60  57  89 E12       29.79F FOG
$$

SDZ012>016-024>037-041>051-057-063-072>074-061100-
SOUTHWEST AND SOUTH CENTRAL SOUTH DAKOTA

CITY           SKY/WX    TMP DP  RH WIND       PRES   REMARKS
RAPID CTY ARPT CLOUDY    53  52  96 SE6       29.74F
PIERRE         CLOUDY    59  55  87 SE9       29.77F
CUSTER         LGT RAIN  47  46  97 SE5       29.77F FOG
ELLSWORTH AFB  CLOUDY    54  54 100 SE8       29.73F
PHILIP         LGT RAIN  56  55  97 E7        29.75F FOG
PINE RIDGE     LGT RAIN  53  51  93 E7        29.72F
WINNER         CLOUDY    60  55  83 SE15      29.78F
$$

SDZ004>011-016>023-039-040-061100-
NORTHEAST SOUTH DAKOTA

CITY           SKY/WX    TMP DP  RH WIND       PRES   REMARKS
ABERDEEN       CLOUDY    60  57  89 SE9       29.87F
WATERTOWN      CLOUDY    58  55  90 SE8       29.92F
BROOKINGS      CLOUDY    61  57  88 SE16      29.93S
SISSETON         N/A     55  55 100 S13       29.93F
$$

SDZ017-020-022-023-036>040-048>070-061100-
SOUTHEAST SOUTH DAKOTA

CITY           SKY/WX    TMP DP  RH WIND       PRES   REMARKS
SIOUX FALLS    CLOUDY    63  59  87 SE15      29.90F
HURON          CLOUDY    62  59  90 SE10      29.85F FOG
MITCHELL       CLOUDY    62  59  90 SE9       29.85F FOG
YANKTON        MOCLDY    63  57  82 SE10      29.86F
$$

ABBREVIATIONS USED IN REMARKS
   TC - TEMPERATURE IN CELSIUS
  WCI - WIND CHILL INDEX
   HX - HEAT INDEX
  VSB - VISIBILITY



USA.gov is the U.S. government's official web portal to all federal, state and local government web resources and services.